Tracking 30703 objects as of 13-Jun-2025
HD Live streaming from Space Station
objects crossing your sky now

STARLINK-5925

Track STARLINK-5925 now!
10-day predictions
STARLINK-5925 is classified as:


NORAD ID: 55945
Int'l Code: 2023-037AH
Perigee: 576.5 km
Apogee: 581.9 km
Inclination: 70.0 °
Period: 96.1 minutes
Semi major axis: 6950 km
RCS: Unknown
Launch date: March 17, 2023
Source: United States (US)
Launch site: AIR FORCE WESTERN TEST RANGE (AFWTR)
Your satellite tracking list
Your tracking list is empty




NASA's NSSDC Master Catalog

Two Line Element Set (TLE):
1 55945U 23037AH  25163.92235567  .00001603  00000-0  14211-3 0  9991
2 55945  70.0000 244.5512 0003916 267.0505  93.0206 14.98337478123576
Source of the keplerian elements: AFSPC